Freedom, CA

3:31 AM PST on December 06, 2016 (GMT -0800)
Watsonville Municipal

Weather History for KWVI - September, 2014

Change the Weather History Date:

Saturday, September 13, 2014

  Actual Average Record
Temperature  
Mean Temperature 68 °F 64 °F  
Max Temperature 76 °F 75 °F 89 °F (2003)
Min Temperature 60 °F 52 °F 48 °F (2010)
Degree Days  
Heating Degree Days 0    
Month to date heating degree days 7  
Since 1 July heating degree days 22  
Cooling Degree Days 3    
Month to date cooling degree days 12  
Year to date cooling degree days 212  
Growing Degree Days 16 (Base 50)    
Moisture  
Dew Point 57 °F    
Average Humidity 74    
Maximum Humidity 90    
Minimum Humidity 57    
Precipitation  
Precipitation 0.00 in - 0.22 in (1963)
Month to date precipitation 0.00  
Year to date precipitation 8.24  
Since 1 July precipitation 0.06  
Sea Level Pressure  
Sea Level Pressure 29.85 in    
Wind  
Wind Speed 4 mph (South)    
Max Wind Speed 14 mph    
Max Gust Speed 18 mph    
Visibility 9 miles    
Events      
T = Trace of Precipitation, MM = Missing Value Source: NWS Daily Summary

Daily Weather History Graph

Daily Weather History Graph

Search for Another Location

Airport or City:

Trip Planner

Search our weather history database for the weather conditions in past years. The results will help you decide how hot, cold, wet, or windy it might be!

Date:

Astronomy

Sep. 13, 2014 Rise Set
Actual Time 6:47 AM PDT 7:17 PM PDT
Civil Twilight 6:21 AM PDT 7:43 PM PDT
Nautical Twilight 5:51 AM PDT 8:14 PM PDT
Astronomical Twilight 5:19 AM PDT 8:45 PM PDT
Moon 10:34 PM PDT (9/13) 11:52 AM PDT (9/13)
Length of Visible Light 13h 21m
Length of Day
12h 29m
Waning Gibbous, 73% of the Moon is Illuminated
Sep 13
Waning Gibbous
Sep 15
Last Quarter
Sep 23
New
Oct 1
First Quarter
Oct 8
Full

Hourly Weather History & Observations

Time (PDT) Temp. Dew Point Humidity Pressure Visibility Wind Dir Wind Speed Gust Speed Precip Events Conditions
12:39 AM 62.1 °F 57.0 °F 84% 29.87 in 10.0 mi SSE 3.5 mph - N/A   Overcast
12:53 AM 62.1 °F 57.0 °F 84% 29.86 in 10.0 mi SE 3.5 mph - N/A   Overcast
1:34 AM 61.0 °F 57.0 °F 87% 29.87 in 10.0 mi Calm Calm - N/A   Overcast
1:53 AM 61.0 °F 57.0 °F 87% 29.86 in 10.0 mi Calm Calm - N/A   Overcast
2:12 AM 61.0 °F 57.0 °F 87% 29.86 in 10.0 mi ESE 3.5 mph - N/A   Overcast
2:53 AM 61.0 °F 57.0 °F 87% 29.85 in 10.0 mi Calm Calm - N/A   Overcast
3:53 AM 61.0 °F 57.0 °F 87% 29.85 in 7.0 mi Variable 3.5 mph - N/A   Overcast
4:53 AM 61.0 °F 57.0 °F 87% 29.84 in 5.0 mi Calm Calm - N/A   Overcast
5:53 AM 60.1 °F 57.0 °F 90% 29.85 in 7.0 mi NE 4.6 mph - N/A   Overcast
6:53 AM 61.0 °F 57.0 °F 87% 29.86 in 7.0 mi NE 3.5 mph - N/A   Overcast
7:53 AM 60.1 °F 57.0 °F 90% 29.88 in 5.0 mi Calm Calm - N/A   Overcast
8:53 AM 61.0 °F 57.0 °F 87% 29.87 in 7.0 mi Calm Calm - N/A   Overcast
9:40 AM 63.0 °F 57.0 °F 81% 29.87 in 7.0 mi East 3.5 mph - N/A   Overcast
9:53 AM 63.0 °F 57.0 °F 81% 29.88 in 7.0 mi Calm Calm - N/A   Overcast
10:53 AM 66.0 °F 57.0 °F 73% 29.86 in 10.0 mi SE 3.5 mph - N/A   Scattered Clouds
11:53 AM 71.1 °F 57.9 °F 63% 29.84 in 10.0 mi SSW 8.1 mph - N/A   Clear
12:53 PM 72.0 °F 57.9 °F 61% 29.84 in 10.0 mi WSW 6.9 mph - N/A   Clear
1:53 PM 68.0 °F 57.0 °F 68% 29.83 in 10.0 mi SW 11.5 mph - N/A   Clear
2:53 PM 73.0 °F 57.0 °F 57% 29.82 in 10.0 mi SSW 10.4 mph - N/A   Clear
3:53 PM 68.0 °F 57.0 °F 68% 29.82 in 10.0 mi SW 9.2 mph - N/A   Clear
4:53 PM 64.9 °F 57.0 °F 75% 29.83 in 10.0 mi WSW 8.1 mph - N/A   Clear
5:53 PM 64.9 °F 57.0 °F 75% 29.83 in 10.0 mi SSW 11.5 mph - N/A   Clear
6:00 PM 64.0 °F 57.0 °F 78% 29.84 in 10.0 mi SSW 9.2 mph - N/A   Partly Cloudy
6:14 PM 64.0 °F 57.0 °F 78% 29.84 in 10.0 mi SSW 5.8 mph - N/A   Mostly Cloudy
6:53 PM 63.0 °F 57.0 °F 81% 29.83 in 10.0 mi SSW 5.8 mph - N/A   Overcast
7:53 PM 63.0 °F 57.0 °F 81% 29.83 in 10.0 mi South 3.5 mph - N/A   Overcast
8:53 PM 62.1 °F 57.0 °F 84% 29.85 in 10.0 mi Calm Calm - N/A   Overcast
9:53 PM 62.1 °F 57.0 °F 84% 29.84 in 10.0 mi Calm Calm - N/A   Overcast
10:53 PM 62.1 °F 57.0 °F 84% 29.84 in 10.0 mi Calm Calm - N/A   Overcast
11:53 PM 63.0 °F 57.0 °F 81% 29.83 in 10.0 mi Variable 3.5 mph - N/A   Overcast